Zurück zum Katalog

COSMOS 1275 DEB

AktivPO
NORAD 12731·DEBRIS·🇷🇺 Russia

Gestartet Jun 4, 1981 von Plesetsk Cosmodrome

Loading…

Nächste Überflüge (nächste 24 Stunden)

TLE

AktuellSource: Space-Track

Epoche: Sep 14, 2026, 11:26 UTC

1 12731U 81053BY  26257.47656399  .00000313  00000-0  28256-3 0  9995
2 12731  82.9396 160.9861 0081779 305.9144 177.4269 13.79525534263395

Verfolge COSMOS 1275 DEB in Echtzeit mit AllMySat

Download on the App Store